This is the latest recevied weather packets stored in our database for station/object VK2XSE. If no packets are shown the sender has not sent any weather packets the latest 10 day(s).
| Time | Temp. | Humidity | Pressure | Rain* | Wind** | Luminosity | Snow |
|---|---|---|---|---|---|---|---|
| 1777802718 | 17.78° C | 93% | 1015.4 hPa | 1.02 mm | - | 0 W/m² | - |
| 1777802118 | 17.78° C | 93% | 1015.4 hPa | 0.51 mm | - | 0 W/m² | - |
| 1777801518 | 17.78° C | 93% | 1015.4 hPa | 0.25 mm | - | 0 W/m² | - |
| 1777800918 | 17.78° C | 93% | 1015.5 hPa | 0.51 mm | - | 0 W/m² | - |
| 1777800318 | 17.78° C | 93% | 1015.4 hPa | 0.51 mm | - | 0 W/m² | - |
| 1777799718 | 17.78° C | 93% | 1015.4 hPa | 0.51 mm | - | 0 W/m² | - |
| 1777799118 | 17.78° C | 92% | 1015.3 hPa | 0.51 mm | - | 0 W/m² | - |
| 1777798518 | 17.78° C | 92% | 1015.1 hPa | 1.27 mm | - | 0 W/m² | - |
| 1777797918 | 17.78° C | 92% | 1015.1 hPa | 1.78 mm | - | 0 W/m² | - |
| 1777797318 | 17.78° C | 92% | 1014.9 hPa | 2.03 mm | - | 0 W/m² | - |
| 1777796718 | 17.78° C | 92% | 1014.8 hPa | 3.05 mm | - | 0 W/m² | - |
| 1777796118 | 17.78° C | 92% | 1014.5 hPa | 4.32 mm | - | 0 W/m² | - |
| 1777795518 | 17.78° C | 92% | 1014.5 hPa | 7.11 mm | - | 0 W/m² | - |
| 1777794918 | 17.22° C | 92% | 1014.5 hPa | 6.86 mm | - | 0 W/m² | - |
| 1777794318 | 17.22° C | 91% | 1014.7 hPa | 6.6 mm | - | 0 W/m² | - |
| 1777793718 | 17.22° C | 91% | 1015 hPa | 6.1 mm | - | 0 W/m² | - |
| 1777793118 | 17.22° C | 90% | 1015.2 hPa | 5.08 mm | - | 0 W/m² | - |
| 1777792518 | 17.22° C | 88% | 1015.1 hPa | 3.56 mm | - | 0 W/m² | - |
| 1777791918 | 17.78° C | 84% | 1015.1 hPa | 0.76 mm | - | 0 W/m² | - |
| 1777791318 | 19.44° C | 78% | 1015.1 hPa | 0.51 mm | - | 0 W/m² | - |
| 1777790718 | 20.56° C | 76% | 1014.4 hPa | 0 mm | - | 4 W/m² | - |
| 1777790118 | 20.56° C | 75% | 1014.2 hPa | 0 mm | - | 9 W/m² | - |
| 1777789518 | 21.11° C | 71% | 1014.3 hPa | 0 mm | - | 11 W/m² | - |
| 1777788918 | 21.11° C | 71% | 1014.2 hPa | 0 mm | - | 10 W/m² | - |
| 1777788318 | 21.67° C | 70% | 1014 hPa | 0 mm | - | 29 W/m² | - |
* Rain latest hour (hover to see other rain measurements)
** Current wind speed in m/s (hover to see current wind gust speed)